Terminal Aerodrome Forecast
Issued by NWS

Home | Current Version | Previous Version | Graphics & Text | Print | Product List | Glossary On
Versions: 1 2 3 4 5 6 7 8 9 10 11 12 13
000
FTUS45 KGGW 301100 RRA
TAFSDY
TAF
KSDY 301143Z 3012/3112 35006KT P6SM OVC015
     FM301900 05008KT P6SM FEW025 SCT040
     FM310200 15012KT P6SM SCT250
      AMD LTD TO CLD VIS AND WIND=

USA.gov is the U.S. government's official web portal to all federal, state and local government web resources and services.